Location: Altleiningen
(49.5078°N, 8.0741°E)
Time: 05:21:19
(UTC+00:00)

USA 238 DEB - Pass Details

Date: 14 June 2025
Orbit: 899 x 1311 km, 63.4° (Epoch: 11 June)

Event Time Altitude Azimuth Distance (km) Brightness Sun altitude
Rises 20:12:14 0° 317° (NW) 3,952 9.8 -5.2°
Reaches altitude 10° 20:14:50 10° 315° (NW) 3,047 8.0 -5.5°
Maximum altitude 20:22:09 70° 234° (SW) 1,295 4.2 -6.3°
Drops below altitude 10° 20:30:04 10° 153° (SSE) 3,282 5.6 -7.1°
Enters shadow 20:30:45 - 152° (SSE) 3,517 5.8 -7.2°
